Regional Weather Roundup
Issued by NWS San Angelo, TX

Current Version | Previous Version | Text Only | Print | Product List | Glossary On
Versions: 1 2 3 4 5 6 7 8 9 10 11 12 13 14 15 16 17 18 19 20 21 22 23 24 25 26 27 28 29 30 31 32 33 34 35 36 37 38 39 40 41 42 43 44 45 46 47 48 49 50
000
ASUS44 KSJT 252011
RWRSJT
WEST CENTRAL TEXAS REGIONAL WEATHER ROUNDUP
NATIONAL WEATHER SERVICE SAN ANGELO TX
300 PM CDT MON JUL 25 2016

NOTE: "FAIR" INDICATES FEW OR NO CLOUDS BELOW 12,000 FEET WITH NO
SIGNIFICANT WEATHER AND/OR OBSTRUCTIONS TO VISIBILITY.

TXZ049-054-064>066-071>073-076>078-098-099-113-114-127-128-139-140-
154-155-168>170-252100
...LOCATIONS ACROSS WEST CENTRAL TEXAS...

CITY           SKY/WX    TMP DP  RH WIND       PRES   REMARKS
SAN ANGELO     SUNNY    101  61  26 N12G18    29.96F
ABILENE        LGT RAIN  87  69  54 W10       29.98F
DYESS AFB      SUNNY     99  65  33 VRB5      29.95F
JUNCTION       MOSUNNY   97  62  31 VRB7G16   29.95F
SWEETWATER     MOSUNNY   98  61  29 E10       30.02F
BROWNWOOD      LGT RAIN  97  63  32 E3        29.94F
COLEMAN        MOCLDY    97  60  29 SE3       29.96F
SONORA         SUNNY     95  61  31 N6        30.01F
OZONA          FAIR      97  59  28 E7G16     30.01F
BRADY          NOT AVBL
$$

TEXAS PANHANDLE/OKLAHOMA PANHANDLE

CITY           SKY/WX    TMP DP  RH WIND       PRES   REMARKS
AMARILLO       CLOUDY    79  59  50 SE16      30.11F
BORGER         SUNNY     92  66  42 NE10G16   30.08F
CANADIAN       SUNNY     91  69  48 NE7       30.04F
DALHART        SUNNY     90  63  40 E10       30.14F
DUMAS          CLEAR     90  66  44 E10G17    30.12F
GUYMON         NOT AVBL
HEREFORD       PTCLDY    98  57  25 N8G16     30.09F
PAMPA          CLEAR     91  65  41 CALM      30.11F
PERRYTON       SUNNY     90  66  44 E8        30.10F
$$

SOUTHERN PANHANDLE/SOUTH PLAINS/ROLLING PLAINS

CITY           SKY/WX    TMP DP  RH WIND       PRES   REMARKS
LUBBOCK        MOSUNNY   97  57  26 VRB6      30.05F
SNYDER           N/A     96  63  33 E5        30.01F
CHILDRESS      MOSUNNY   99  63  30 E10       29.98F
SEMINOLE       PTCLDY    96  53  23 SE8       30.07F
$$

PERMIAN BASIN

CITY           SKY/WX    TMP DP  RH WIND       PRES   REMARKS
MIDLAND        MOSUNNY  100  58  24 E14G21    30.02F
ODESSA         MOSUNNY   99  56  23 SE12      30.03F
WINK           PTSUNNY  100  57  23 NE9G20    29.99F
$$

FAR WEST/SOUTHWEST MOUNTAINS/TRANS PECOS

CITY           SKY/WX    TMP DP  RH WIND       PRES   REMARKS
ALPINE         PTCLDY    94  49  21 E10G18    30.16F
DRYDEN           N/A     99  62  29 E13G23    29.95F
EL PASO        MOSUNNY   97  46  17 SE13G20   30.05F
FORT STOCKTON  MOSUNNY   96  57  27 E14       30.02F
GUADALUPE PASS MOSUNNY   88  51  28 E21G33    30.21F
MARFA          MOSUNNY   91  49  23 NE15      30.14F
PECOS          PTCLDY   100  56  23 E13G20    29.99F
$$

DALLAS/FORT WORTH METROPLEX

CITY           SKY/WX    TMP DP  RH WIND       PRES   REMARKS
DFW AIRPORT    MOSUNNY   98  68  37 NE6       29.90F
FTW MEACHAM    SUNNY    101  68  34 NE9G22    29.90F
DAL-EXECUTIVE  SUNNY    100  68  35 NE7       29.89F
GRAND PRAIRIE  SUNNY     97  64  34 NE6       29.91F
ADDISON        PTSUNNY   97  68  38 VRB10     29.92F
MESQUITE       MOCLDY    93  72  49 E17       29.92F
LANCASTER      PTCLDY   100  70  37 NE8       29.90F
$$

NORTH CENTRAL TEXAS

CITY           SKY/WX    TMP DP  RH WIND       PRES   REMARKS
SHRMAN/DENISON LGT RAIN  86  71  60 E6        29.95S
GAINESVILLE    MOSUNNY   92  71  50 SE10      29.95F
BRIDGEPORT     PTCLDY    97  70  41 N3        29.95F
DENTON         CLOUDY    96  73  47 NE16      29.91F
WAXAHACHIE     PTCLDY    96  71  44 N6        29.91F
GRANBURY       PTCLDY   100  66  32 E5        29.92F
$$

WESTERN NORTH TEXAS

CITY           SKY/WX    TMP DP  RH WIND       PRES   REMARKS
WICHITA FALLS  MOSUNNY   99  69  37 VRB7      29.93F
VERNON         CLEAR     99  57  24 E8        29.96F
BRECKENRIDGE   CLOUDY    99  62  30 NE6       29.93F
COMANCHE       MOSUNNY   99  66  33 N8        29.95F
$$

CENTRAL AND SOUTH CENTRAL TEXAS

CITY           SKY/WX    TMP DP  RH WIND       PRES   REMARKS
AUSTIN/BERGSTM MOSUNNY   98  70  40 VRB3      29.88F
WACO           SUNNY     99  67  35 VRB3      29.88F
HILLSBORO      CLOUDY    93  72  50 N9        29.91F
TEMPLE         MOSUNNY   99  71  40 SE13      29.89F
KILLEEN-GRAY   SUNNY     98  65  34 NE7       29.90F
FORT HOOD      MOSUNNY   98  68  37 E8        29.88F
GEORGETOWN     MOSUNNY  100  68  34 VRB6      29.90F
LAGO VISTA     MOCLDY    97  64  33 E8        29.93F
SAN MARCOS     PTSUNNY   97  70  41 E5        29.91F
NEW BRAUNFELS  MOSUNNY   98  68  37 VRB3      29.88F
RANDOLPH AFB   PTSUNNY   95  68  41 CALM      29.90F
SAN ANTONIO    MOSUNNY   96  69  41 S6        29.91F
STINSON        SUNNY     98  67  36 VRB5      29.88F
PLEASANTON     NOT AVBL
LA GRANGE        N/A     97  71  43 E5        29.87F HAZE
GIDDINGS       PTCLDY    96  68  39 W3        29.92F
$$

EAST TEXAS

CITY           SKY/WX    TMP DP  RH WIND       PRES   REMARKS
PARIS          MOSUNNY   99  68  36 E7        29.92F
CLARKSVILLE    NOT AVBL
TYLER          TSTM      88  74  63 N5        29.91F
LONGVIEW       PTSUNNY   81  73  76 SW3       29.91F THUNDER
PALESTINE      PTCLDY    97  72  44 NW3       29.90F
NACOGDOCHES    CLOUDY   N/A N/A N/A NE7       29.89S
$$

TEXAS HILL COUNTRY AND EDWARDS PLATEAU

CITY           SKY/WX    TMP DP  RH WIND       PRES   REMARKS
LLANO          PTCLDY    99  64  32 S6        29.94F
HORSESHOE BAY  MOCLDY    96  64  34 SE7       29.92F
KERRVILLE      SUNNY     97  69  39 S9        29.96F
FREDERICKSBRG  SUNNY     95  60  31 SE3       29.95F
ROCKSPRINGS    PTCLDY    97  61  30 CALM      30.00F
HONDO          SUNNY     96  67  38 VRB6      29.93F
UVALDE         CLEAR     97  67  38 E8        29.91F
DEL RIO        MOSUNNY   98  65  33 VRB6      29.88F
$$

SOUTHEAST TEXAS

CITY           SKY/WX    TMP DP  RH WIND       PRES   REMARKS
COLLEGE STN    CLOUDY    83  70  64 NW17G37   29.90S THUNDER
CALDWELL       PTCLDY    95  66  38 CALM      29.92F
CROCKETT       LGT RAIN  77  75  94 N6        29.93F
BRENHAM        MOSUNNY   97  70  41 E3        29.88F
HUNTSVILLE     MOSUNNY   96  70  42 VRB6      29.88F
CONROE         CLOUDY    97  70  41 VRB6      29.89F
HOUSTON BUSH   TSTM      94  73  50 E9        29.90F
HOUSTON HOBBY  TSTM      76  74  93 NE8G18    29.95R VSB 1/2
PERLAND        TSTM      80  75  84 E5        29.94S
WHARTON        CLOUDY   100  70  36 CALM      29.88F
$$

THE UPPER TEXAS COAST

CITY           SKY/WX    TMP DP  RH WIND       PRES   REMARKS
ORANGE         RAIN      76  74  91 SE6       29.96F
PORT ARTHUR    RAIN      76  32  20 S3        29.94F
GALVESTON      LGT RAIN  79  77  94 SE8       29.95F
ANGLETON       CLOUDY    82  77  84 E7        29.92F
BAY CITY       CLOUDY    89  76  65 S13       29.91F
$$

TEXAS COASTAL BEND, RIO GRANDE PLAINS DEEP SOUTH TEXAS

CITY           SKY/WX    TMP DP  RH WIND       PRES   REMARKS
VICTORIA       CLOUDY    95  68  41 MISG      29.88F
BEEVILLE       FAIR     100  69  37 SW5       29.88F
ROCKPORT       MOSUNNY   92  75  57 SE13      29.89F
PORT ARANSAS   CLOUDY    89  77  67 SE8       29.90F
PORT LAVACA    MOCLDY    90  79  70 SE12      29.89F
CORPUS CHRISTI PTSUNNY   96  75  50 SE13      29.87F
KINGSVILLE NAS PTSUNNY   96  75  50 E7        29.86F
COTULLA        MOSUNNY  101  64  29 VRB6G20   29.87F
LAREDO         MOSUNNY  100  70  37 E5        29.86F
BROWNSVILLE    MOSUNNY   94  76  55 SE16      29.87F
PORT ISABEL    MOSUNNY   95  77  55 SE21G26   29.86F
HEBBRONVILLE   PTCLDY    98  63  31 SE9       29.88F
MCALLEN        SUNNY    102  69  34 SE7G17    29.85F
WESLACO        SUNNY     94 -15   1 SE10G17   29.85F
FALFURRIAS     MOCLDY   100  65  32 SE9       29.85F
EDINBURG       PTCLDY   101  64  29 E10G16    29.85F
$$



USA.gov is the U.S. government's official web portal to all federal, state and local government web resources and services.